Погода в Коромыслово

Россия / Ивановская область     57°12′29″N   40°19′52″E
темп.,
°C
ветер,
м/с
пор.,
м/с
влажн.,
%
обл.,
%
осадки,
мм/ч
давл.,
гПа
погр.,
м
17 апреля, сб
сб1700:00+6всв6137887 0.0 1026414
03:00+5всв6138350 0.0 1027353
06:00+4всв513805 0.0 1027353
09:00+8в610627 0.0 1027525
12:00+12в79485 0.0 1027933
15:00+13всв78401 0.0 10261064
18:00+12всв69461 0.0 1025874
21:00+7всв412671 0.0 1026319
18 апреля, вс
вс1800:00+5всв512790 0.0 1026332
03:00+4всв412840 0.0 1026312
06:00+3всв512830 0.0 1026338
09:00+8всв711621 0.0 1026887
12:00+11всв79475 0.0 10251556
15:00+12всв79415 0.0 10251901
18:00+11всв695363 0.0 10251253
21:00+5всв712815 0.0 1028524
19 апреля, пн
пн1900:00+4всв6128247 0.0 1029497
03:00+3в5117788 0.0 1029488
06:00+2всв61170100 0.0 1029515
09:00+4в6960100 0.0 1030731
12:00+7в7851100 0.0 10301148
15:00+9в784781 0.0 10291592
18:00+7в6946100 0.0 10291334
21:00+5в61347100 0.0 1030604
20 апреля, вт
вт2000:00+3в5125693 0.0 1030499
03:00+1в61360100 0.0 1029487
06:00+1в61362100 0.0 1028522
09:00+4вюв7125685 0.0 1027780
12:00+8вюв81150100 0.0 10261177
15:00+10вюв9134881 0.0 10231347
18:00+9вюв91549100 0.0 10201206
21:00+7вюв91752100 0.0 10181119
21 апреля, ср
ср2100:00+5вюв101976100 1.5 1014873
03:00+4вюв102087100 3.8 10121061
06:00+5вюв91889100 3.1 1009900
09:00+6юв101989100 3.3 10061024
12:00+8юв102087100 0.2 10041484
15:00+8ююв102084100 1.3 10041587
18:00+6ю101793100 0.1 10061183
21:00+5ю91589100 0.2 10091232